DECAYED

STARLINK-4407, 53196 (Decayed)

Orbit data source: Space-Track

STARLINK-4407, 53196 was a payload satellite owned by SpaceX/Seattle (US) in LEO that was launched on Fri, 22 Jul 2022 UTC via an FALCON 9 launch vehicle from the Air Force Western Test Range (AFWTR). Payload-class satellites include a variety of spacecraft equipped with specific instruments for various scientific and technological missions. These include communications satellites like Starlink; space stations such as the ISS; scientific satellites like the Hubble; Earth observation satellites from companies like Planet Labs, Umbra, and HawkEye 360; GPS; miniature CubeSats for education and research; and military/defense satellites.

Not visible in the next 10 days
Identifier
53196, 2022-084H
Orbit
Decayed
Country
Flag of USUS
Related business
Manufacturer
SpaceX/Seattle
Mission
Decayed Commercial Communications
Bus & Motor
STARLINK, Unknown motor
Mass
297 kg wet, ~275 kg dry
Launch date (UTC)
2022-07-22 (4 years ago)
Launch vehicle
FALCON 9
Launch site
Air Force Western Test Range (AFWTR)
Object type
Payload
Rocket body
Debris
Shape & HBR
Box + 1 Pan, 10.1 m
Radar Cross Section
13.562 m², Large (>1 m²)

Expand to show TLE details & history
Last TLE update: 3 months ago

TLE from 3 months ago
0 STARLINK-4407
1 53196U 22084H   26092.19100582  .11165197  26951-5  23764-3 0  9999
2 53196  97.5899 182.1097 0013188 280.8432  79.1386 16.45799667205268
Epoch: 2026-04-02T04:35Z
TLE epoch observation values (Epoch: 2026-04-02T04:35:02.902Z)
Latitude
Longitude
-77.19543°
Altitude
152.061 km
Speed
7.816 km/s
True Right ascension
12h 08m 26s
True Declination
0° 00' 00"
Sunlit
Object was in full shadow at epoch
Visualization orbit readout
Latitude
Unknown
Longitude
Unknown
Altitude
Unknown
Speed
Unknown
Apparent Right ascension
Unknown
Apparent Declination
Unknown
Sunlit
N/A
Visualization observer readout
Local Sidereal Time
21:25:33
Azimuth
Unknown
Elevation
Unknown
Doppler factor
Unknown
Orbital elements
Apogee altitude
155.834 km
Perigee altitude
138.623 km
Semi-major axis
6,525.366 km
Eccentricity
0.00132
Inclination
97.5899°
RAAN
182.1097°
Arg. of periapsis
280.8432°
True anomaly
79.28706°
Mean anomaly
79.1386°
Eccentric anomaly
79.21283°
Mean motion
4.11752 °/min
Orbital period
87.43 mins
BSTAR
0.00023764
Loading maneuver chart data...
Computing Atmospheric mass density...
Loading historical data...
Loading historical data...
Loading historical data...
Loading historical data...
Loading historical data...
Loading historical data...
Loading historical data...

Documentation

Showing up to 5 results
|